owner,sensor,date,latitude,longitude,sea_surface_height_above_sea_level,qcFlag 
TCOON,ioos:station:TCOON:031:1,2016-10-01T00:18:00Z,28.4073,-96.7122,0.608,1111122 
TCOON,ioos:station:TCOON:031:1,2016-10-01T01:18:00Z,28.4073,-96.7122,0.613,1111122 
TCOON,ioos:station:TCOON:031:1,2016-10-01T02:18:00Z,28.4073,-96.7122,0.616,1111122 
TCOON,ioos:station:TCOON:031:1,2016-10-01T03:18:00Z,28.4073,-96.7122,0.621,1111122 
TCOON,ioos:station:TCOON:031:1,2016-10-01T04:12:00Z,28.4073,-96.7122,0.621,1111122 
TCOON,ioos:station:TCOON:031:1,2016-10-01T05:18:00Z,28.4073,-96.7122,0.633,1111122 
TCOON,ioos:station:TCOON:031:1,2016-10-01T06:30:00Z,28.4073,-96.7122,0.627,1111122 
TCOON,ioos:station:TCOON:031:1,2016-10-01T07:18:00Z,28.4073,-96.7122,0.624,1111122 
TCOON,ioos:station:TCOON:031:1,2016-10-01T08:18:00Z,28.4073,-96.7122,0.624,1111122 
TCOON,ioos:station:TCOON:031:1,2016-10-01T09:18:00Z,28.4073,-96.7122,0.616,1111122 
TCOON,ioos:station:TCOON:031:1,2016-10-01T10:18:00Z,28.4073,-96.7122,0.612,1111122 
TCOON,ioos:station:TCOON:031:1,2016-10-01T11:18:00Z,28.4073,-96.7122,0.634,1111122 
TCOON,ioos:station:TCOON:031:1,2016-10-01T12:18:00Z,28.4073,-96.7122,0.632,1111122 
TCOON,ioos:station:TCOON:031:1,2016-10-01T13:18:00Z,28.4073,-96.7122,0.633,1111122 
TCOON,ioos:station:TCOON:031:1,2016-10-01T14:18:00Z,28.4073,-96.7122,0.637,1111122 
TCOON,ioos:station:TCOON:031:1,2016-10-01T15:18:00Z,28.4073,-96.7122,0.628,1111122 
TCOON,ioos:station:TCOON:031:1,2016-10-01T16:18:00Z,28.4073,-96.7122,0.629,1111122 
TCOON,ioos:station:TCOON:031:1,2016-10-01T17:12:00Z,28.4073,-96.7122,0.624,1111122 
TCOON,ioos:station:TCOON:031:1,2016-10-01T18:18:00Z,28.4073,-96.7122,0.615,1111122 
TCOON,ioos:station:TCOON:031:1,2016-10-01T19:18:00Z,28.4073,-96.7122,0.614,1111122 
TCOON,ioos:station:TCOON:031:1,2016-10-01T20:18:00Z,28.4073,-96.7122,0.608,1111122 
TCOON,ioos:station:TCOON:031:1,2016-10-01T21:18:00Z,28.4073,-96.7122,0.607,1111122 
TCOON,ioos:station:TCOON:031:1,2016-10-01T22:18:00Z,28.4073,-96.7122,0.6,1111122 
TCOON,ioos:station:TCOON:031:1,2016-10-01T23:18:00Z,28.4073,-96.7122,0.591,1111122 
TCOON,ioos:station:TCOON:031:1,2016-10-02T00:18:00Z,28.4073,-96.7122,0.605,1111122 
TCOON,ioos:station:TCOON:031:1,2016-10-02T01:18:00Z,28.4073,-96.7122,0.592,1111122 
TCOON,ioos:station:TCOON:031:1,2016-10-02T02:18:00Z,28.4073,-96.7122,0.608,1111122 
TCOON,ioos:station:TCOON:031:1,2016-10-02T03:12:00Z,28.4073,-96.7122,0.606,1111122 
TCOON,ioos:station:TCOON:031:1,2016-10-02T04:18:00Z,28.4073,-96.7122,0.609,1111122 
TCOON,ioos:station:TCOON:031:1,2016-10-02T05:18:00Z,28.4073,-96.7122,0.613,1111122 
TCOON,ioos:station:TCOON:031:1,2016-10-02T06:18:00Z,28.4073,-96.7122,0.604,1111122 
TCOON,ioos:station:TCOON:031:1,2016-10-02T07:12:00Z,28.4073,-96.7122,0.61,1111122 
TCOON,ioos:station:TCOON:031:1,2016-10-02T08:18:00Z,28.4073,-96.7122,0.61,1111122 
TCOON,ioos:station:TCOON:031:1,2016-10-02T09:18:00Z,28.4073,-96.7122,0.606,1111122 
TCOON,ioos:station:TCOON:031:1,2016-10-02T10:18:00Z,28.4073,-96.7122,0.609,1111122 
TCOON,ioos:station:TCOON:031:1,2016-10-02T11:18:00Z,28.4073,-96.7122,0.615,1111122 
TCOON,ioos:station:TCOON:031:1,2016-10-02T12:18:00Z,28.4073,-96.7122,0.622,1111122 
TCOON,ioos:station:TCOON:031:1,2016-10-02T13:18:00Z,28.4073,-96.7122,0.618,1111122 
TCOON,ioos:station:TCOON:031:1,2016-10-02T14:18:00Z,28.4073,-96.7122,0.625,1111122 
TCOON,ioos:station:TCOON:031:1,2016-10-02T15:18:00Z,28.4073,-96.7122,0.615,1111122 
TCOON,ioos:station:TCOON:031:1,2016-10-02T16:18:00Z,28.4073,-96.7122,0.633,1111122 
TCOON,ioos:station:TCOON:031:1,2016-10-02T17:18:00Z,28.4073,-96.7122,0.641,1111122 
TCOON,ioos:station:TCOON:031:1,2016-10-02T18:18:00Z,28.4073,-96.7122,0.645,1111122 
TCOON,ioos:station:TCOON:031:1,2016-10-02T19:18:00Z,28.4073,-96.7122,0.656,1111122 
TCOON,ioos:station:TCOON:031:1,2016-10-02T20:18:00Z,28.4073,-96.7122,0.654,1111122 
TCOON,ioos:station:TCOON:031:1,2016-10-02T21:18:00Z,28.4073,-96.7122,0.655,1111122 
TCOON,ioos:station:TCOON:031:1,2016-10-02T22:18:00Z,28.4073,-96.7122,0.662,1111122 
TCOON,ioos:station:TCOON:031:1,2016-10-02T23:18:00Z,28.4073,-96.7122,0.665,1111122 
TCOON,ioos:station:TCOON:031:1,2016-10-03T00:18:00Z,28.4073,-96.7122,0.667,1111122 
TCOON,ioos:station:TCOON:031:1,2016-10-03T01:30:00Z,28.4073,-96.7122,0.666,1111122 
TCOON,ioos:station:TCOON:031:1,2016-10-03T02:30:00Z,28.4073,-96.7122,0.661,1111122 
TCOON,ioos:station:TCOON:031:1,2016-10-03T03:18:00Z,28.4073,-96.7122,0.681,1111122 
TCOON,ioos:station:TCOON:031:1,2016-10-03T04:18:00Z,28.4073,-96.7122,0.675,1111122 
TCOON,ioos:station:TCOON:031:1,2016-10-03T05:18:00Z,28.4073,-96.7122,0.681,1111122 
TCOON,ioos:station:TCOON:031:1,2016-10-03T06:18:00Z,28.4073,-96.7122,0.685,1111122 
TCOON,ioos:station:TCOON:031:1,2016-10-03T07:18:00Z,28.4073,-96.7122,0.682,1111122 
TCOON,ioos:station:TCOON:031:1,2016-10-03T08:18:00Z,28.4073,-96.7122,0.684,1111122 
TCOON,ioos:station:TCOON:031:1,2016-10-03T09:18:00Z,28.4073,-96.7122,0.687,1111122 
TCOON,ioos:station:TCOON:031:1,2016-10-03T10:18:00Z,28.4073,-96.7122,0.683,1111122 
TCOON,ioos:station:TCOON:031:1,2016-10-03T11:18:00Z,28.4073,-96.7122,0.677,1111122 
TCOON,ioos:station:TCOON:031:1,2016-10-03T12:18:00Z,28.4073,-96.7122,0.681,1111122 
TCOON,ioos:station:TCOON:031:1,2016-10-03T13:18:00Z,28.4073,-96.7122,0.695,1111122 
TCOON,ioos:station:TCOON:031:1,2016-10-03T14:18:00Z,28.4073,-96.7122,0.699,1111122 
TCOON,ioos:station:TCOON:031:1,2016-10-03T15:18:00Z,28.4073,-96.7122,0.689,1111122 
TCOON,ioos:station:TCOON:031:1,2016-10-03T16:18:00Z,28.4073,-96.7122,0.706,1111122 
TCOON,ioos:station:TCOON:031:1,2016-10-03T17:42:00Z,28.4073,-96.7122,0.721,1111122 
TCOON,ioos:station:TCOON:031:1,2016-10-03T18:18:00Z,28.4073,-96.7122,0.717,1111122 
TCOON,ioos:station:TCOON:031:1,2016-10-03T19:18:00Z,28.4073,-96.7122,0.735,1111122 
TCOON,ioos:station:TCOON:031:1,2016-10-03T20:18:00Z,28.4073,-96.7122,0.71,1111122 
TCOON,ioos:station:TCOON:031:1,2016-10-03T21:18:00Z,28.4073,-96.7122,0.743,1111122 
TCOON,ioos:station:TCOON:031:1,2016-10-03T22:18:00Z,28.4073,-96.7122,0.733,1111122 
TCOON,ioos:station:TCOON:031:1,2016-10-03T23:18:00Z,28.4073,-96.7122,0.729,1111122 
TCOON,ioos:station:TCOON:031:1,2016-10-04T00:18:00Z,28.4073,-96.7122,0.712,1111122 
TCOON,ioos:station:TCOON:031:1,2016-10-04T01:18:00Z,28.4073,-96.7122,0.725,1111122 
TCOON,ioos:station:TCOON:031:1,2016-10-04T02:18:00Z,28.4073,-96.7122,0.738,1111122 
TCOON,ioos:station:TCOON:031:1,2016-10-04T03:18:00Z,28.4073,-96.7122,0.728,1111122 
TCOON,ioos:station:TCOON:031:1,2016-10-04T04:18:00Z,28.4073,-96.7122,0.744,1111122 
TCOON,ioos:station:TCOON:031:1,2016-10-04T05:18:00Z,28.4073,-96.7122,0.739,1111122 
TCOON,ioos:station:TCOON:031:1,2016-10-04T06:18:00Z,28.4073,-96.7122,0.737,1111122 
TCOON,ioos:station:TCOON:031:1,2016-10-04T07:18:00Z,28.4073,-96.7122,0.776,1111122 
TCOON,ioos:station:TCOON:031:1,2016-10-04T08:18:00Z,28.4073,-96.7122,0.773,1111122 
TCOON,ioos:station:TCOON:031:1,2016-10-04T09:18:00Z,28.4073,-96.7122,0.788,1111122 
TCOON,ioos:station:TCOON:031:1,2016-10-04T10:18:00Z,28.4073,-96.7122,0.758,1111122 
TCOON,ioos:station:TCOON:031:1,2016-10-04T11:18:00Z,28.4073,-96.7122,0.783,1111122 
TCOON,ioos:station:TCOON:031:1,2016-10-04T12:18:00Z,28.4073,-96.7122,0.793,1111122 
TCOON,ioos:station:TCOON:031:1,2016-10-04T13:18:00Z,28.4073,-96.7122,0.811,1111122 
TCOON,ioos:station:TCOON:031:1,2016-10-04T14:18:00Z,28.4073,-96.7122,0.801,1111122 
TCOON,ioos:station:TCOON:031:1,2016-10-04T15:18:00Z,28.4073,-96.7122,0.816,1111122 
TCOON,ioos:station:TCOON:031:1,2016-10-04T16:18:00Z,28.4073,-96.7122,0.809,1111122 
TCOON,ioos:station:TCOON:031:1,2016-10-04T18:18:00Z,28.4073,-96.7122,0.789,1111122 
TCOON,ioos:station:TCOON:031:1,2016-10-04T19:18:00Z,28.4073,-96.7122,0.791,1111122 
TCOON,ioos:station:TCOON:031:1,2016-10-04T20:18:00Z,28.4073,-96.7122,0.765,1111122 
TCOON,ioos:station:TCOON:031:1,2016-10-04T21:18:00Z,28.4073,-96.7122,0.772,1111122 
TCOON,ioos:station:TCOON:031:1,2016-10-04T22:18:00Z,28.4073,-96.7122,0.768,1111122 
TCOON,ioos:station:TCOON:031:1,2016-10-04T23:18:00Z,28.4073,-96.7122,0.763,1111122 
TCOON,ioos:station:TCOON:031:1,2016-10-05T00:18:00Z,28.4073,-96.7122,0.744,1111122 
TCOON,ioos:station:TCOON:031:1,2016-10-05T01:18:00Z,28.4073,-96.7122,0.743,1111122 
TCOON,ioos:station:TCOON:031:1,2016-10-05T02:18:00Z,28.4073,-96.7122,0.745,1111122 
TCOON,ioos:station:TCOON:031:1,2016-10-05T03:18:00Z,28.4073,-96.7122,0.748,1111122 
TCOON,ioos:station:TCOON:031:1,2016-10-05T04:18:00Z,28.4073,-96.7122,0.76,1111122 
TCOON,ioos:station:TCOON:031:1,2016-10-05T05:18:00Z,28.4073,-96.7122,0.768,1111122 
TCOON,ioos:station:TCOON:031:1,2016-10-05T06:24:00Z,28.4073,-96.7122,0.786,1111122 
TCOON,ioos:station:TCOON:031:1,2016-10-05T07:18:00Z,28.4073,-96.7122,0.778,1111122 
TCOON,ioos:station:TCOON:031:1,2016-10-05T08:18:00Z,28.4073,-96.7122,0.785,1111122 
TCOON,ioos:station:TCOON:031:1,2016-10-05T09:18:00Z,28.4073,-96.7122,0.791,1111122 
TCOON,ioos:station:TCOON:031:1,2016-10-05T10:18:00Z,28.4073,-96.7122,0.787,1111122 
TCOON,ioos:station:TCOON:031:1,2016-10-05T11:18:00Z,28.4073,-96.7122,0.796,1111122 
TCOON,ioos:station:TCOON:031:1,2016-10-05T12:18:00Z,28.4073,-96.7122,0.798,1111122 
TCOON,ioos:station:TCOON:031:1,2016-10-05T13:18:00Z,28.4073,-96.7122,0.797,1111122 
TCOON,ioos:station:TCOON:031:1,2016-10-05T14:18:00Z,28.4073,-96.7122,0.792,1111122 
TCOON,ioos:station:TCOON:031:1,2016-10-05T15:18:00Z,28.4073,-96.7122,0.79,1111122 
TCOON,ioos:station:TCOON:031:1,2016-10-05T16:18:00Z,28.4073,-96.7122,0.775,1111122 
TCOON,ioos:station:TCOON:031:1,2016-10-05T17:18:00Z,28.4073,-96.7122,0.782,1111122 
TCOON,ioos:station:TCOON:031:1,2016-10-05T18:18:00Z,28.4073,-96.7122,0.773,1111122 
TCOON,ioos:station:TCOON:031:1,2016-10-05T19:18:00Z,28.4073,-96.7122,0.757,1111122 
TCOON,ioos:station:TCOON:031:1,2016-10-05T20:18:00Z,28.4073,-96.7122,0.744,1111122 
TCOON,ioos:station:TCOON:031:1,2016-10-05T21:18:00Z,28.4073,-96.7122,0.742,1111122 
TCOON,ioos:station:TCOON:031:1,2016-10-05T22:18:00Z,28.4073,-96.7122,0.742,1111122 
TCOON,ioos:station:TCOON:031:1,2016-10-05T23:18:00Z,28.4073,-96.7122,0.731,1111122 
TCOON,ioos:station:TCOON:031:1,2016-10-06T00:18:00Z,28.4073,-96.7122,0.724,1111122 
TCOON,ioos:station:TCOON:031:1,2016-10-06T01:18:00Z,28.4073,-96.7122,0.714,1111122 
TCOON,ioos:station:TCOON:031:1,2016-10-06T02:18:00Z,28.4073,-96.7122,0.707,1111122 
TCOON,ioos:station:TCOON:031:1,2016-10-06T03:18:00Z,28.4073,-96.7122,0.717,1111122 
TCOON,ioos:station:TCOON:031:1,2016-10-06T04:18:00Z,28.4073,-96.7122,0.727,1111122 
TCOON,ioos:station:TCOON:031:1,2016-10-06T05:12:00Z,28.4073,-96.7122,0.733,1111122 
TCOON,ioos:station:TCOON:031:1,2016-10-06T06:18:00Z,28.4073,-96.7122,0.729,1111122 
TCOON,ioos:station:TCOON:031:1,2016-10-06T07:18:00Z,28.4073,-96.7122,0.74,1111122 
TCOON,ioos:station:TCOON:031:1,2016-10-06T08:12:00Z,28.4073,-96.7122,0.739,1111122 
TCOON,ioos:station:TCOON:031:1,2016-10-06T09:18:00Z,28.4073,-96.7122,0.753,1111122 
TCOON,ioos:station:TCOON:031:1,2016-10-06T10:18:00Z,28.4073,-96.7122,0.747,1111122 
TCOON,ioos:station:TCOON:031:1,2016-10-06T11:18:00Z,28.4073,-96.7122,0.76,1111122 
TCOON,ioos:station:TCOON:031:1,2016-10-06T12:12:00Z,28.4073,-96.7122,0.771,1111122 
TCOON,ioos:station:TCOON:031:1,2016-10-06T13:18:00Z,28.4073,-96.7122,0.759,1111122 
TCOON,ioos:station:TCOON:031:1,2016-10-06T14:18:00Z,28.4073,-96.7122,0.803,1111122 
TCOON,ioos:station:TCOON:031:1,2016-10-06T15:18:00Z,28.4073,-96.7122,0.787,1111122 
TCOON,ioos:station:TCOON:031:1,2016-10-06T16:18:00Z,28.4073,-96.7122,0.812,1111122 
TCOON,ioos:station:TCOON:031:1,2016-10-06T17:18:00Z,28.4073,-96.7122,0.802,1111122 
TCOON,ioos:station:TCOON:031:1,2016-10-06T18:18:00Z,28.4073,-96.7122,0.807,1111122 
TCOON,ioos:station:TCOON:031:1,2016-10-06T19:18:00Z,28.4073,-96.7122,0.8,1111122 
TCOON,ioos:station:TCOON:031:1,2016-10-06T20:18:00Z,28.4073,-96.7122,0.798,1111122 
TCOON,ioos:station:TCOON:031:1,2016-10-06T21:18:00Z,28.4073,-96.7122,0.76,1111122 
TCOON,ioos:station:TCOON:031:1,2016-10-06T22:18:00Z,28.4073,-96.7122,0.774,1111122 
TCOON,ioos:station:TCOON:031:1,2016-10-06T23:18:00Z,28.4073,-96.7122,0.755,1111122 
TCOON,ioos:station:TCOON:031:1,2016-10-07T00:18:00Z,28.4073,-96.7122,0.754,1111122 
TCOON,ioos:station:TCOON:031:1,2016-10-07T01:18:00Z,28.4073,-96.7122,0.749,1111122 
TCOON,ioos:station:TCOON:031:1,2016-10-07T02:18:00Z,28.4073,-96.7122,0.767,1111122 
TCOON,ioos:station:TCOON:031:1,2016-10-07T03:18:00Z,28.4073,-96.7122,0.771,1111122 
TCOON,ioos:station:TCOON:031:1,2016-10-07T04:18:00Z,28.4073,-96.7122,0.767,1111122 
TCOON,ioos:station:TCOON:031:1,2016-10-07T05:18:00Z,28.4073,-96.7122,0.764,1111122 
TCOON,ioos:station:TCOON:031:1,2016-10-07T06:18:00Z,28.4073,-96.7122,0.769,1111122 
TCOON,ioos:station:TCOON:031:1,2016-10-07T07:18:00Z,28.4073,-96.7122,0.772,1111122 
TCOON,ioos:station:TCOON:031:1,2016-10-07T08:18:00Z,28.4073,-96.7122,0.778,1111122 
TCOON,ioos:station:TCOON:031:1,2016-10-07T09:18:00Z,28.4073,-96.7122,0.773,1111122 
TCOON,ioos:station:TCOON:031:1,2016-10-07T10:18:00Z,28.4073,-96.7122,0.78,1111122 
TCOON,ioos:station:TCOON:031:1,2016-10-07T11:18:00Z,28.4073,-96.7122,0.781,1111122 
TCOON,ioos:station:TCOON:031:1,2016-10-07T12:18:00Z,28.4073,-96.7122,0.8,1111122 
TCOON,ioos:station:TCOON:031:1,2016-10-07T13:18:00Z,28.4073,-96.7122,0.799,1111122 
TCOON,ioos:station:TCOON:031:1,2016-10-07T15:18:00Z,28.4073,-96.7122,0.811,1111122 
TCOON,ioos:station:TCOON:031:1,2016-10-07T16:18:00Z,28.4073,-96.7122,0.83,1111122 
TCOON,ioos:station:TCOON:031:1,2016-10-07T18:18:00Z,28.4073,-96.7122,0.821,1111122 
TCOON,ioos:station:TCOON:031:1,2016-10-07T19:18:00Z,28.4073,-96.7122,0.797,1111122 
TCOON,ioos:station:TCOON:031:1,2016-10-07T20:18:00Z,28.4073,-96.7122,0.819,1111122 
TCOON,ioos:station:TCOON:031:1,2016-10-07T21:18:00Z,28.4073,-96.7122,0.798,1111122 
TCOON,ioos:station:TCOON:031:1,2016-10-07T22:18:00Z,28.4073,-96.7122,0.795,1111122 
TCOON,ioos:station:TCOON:031:1,2016-10-07T23:18:00Z,28.4073,-96.7122,0.765,1111122 
TCOON,ioos:station:TCOON:031:1,2016-10-08T00:18:00Z,28.4073,-96.7122,0.783,1111122 
TCOON,ioos:station:TCOON:031:1,2016-10-08T01:18:00Z,28.4073,-96.7122,0.756,1111122 
TCOON,ioos:station:TCOON:031:1,2016-10-08T02:18:00Z,28.4073,-96.7122,0.738,1111122 
TCOON,ioos:station:TCOON:031:1,2016-10-08T03:18:00Z,28.4073,-96.7122,0.727,1111122 
TCOON,ioos:station:TCOON:031:1,2016-10-08T04:18:00Z,28.4073,-96.7122,0.715,1111122 
TCOON,ioos:station:TCOON:031:1,2016-10-08T05:18:00Z,28.4073,-96.7122,0.632,1111122 
TCOON,ioos:station:TCOON:031:1,2016-10-08T06:18:00Z,28.4073,-96.7122,0.609,1111122 
TCOON,ioos:station:TCOON:031:1,2016-10-08T07:18:00Z,28.4073,-96.7122,0.627,1111122 
TCOON,ioos:station:TCOON:031:1,2016-10-08T08:18:00Z,28.4073,-96.7122,0.657,1111122 
TCOON,ioos:station:TCOON:031:1,2016-10-08T09:18:00Z,28.4073,-96.7122,0.66,1111122 
TCOON,ioos:station:TCOON:031:1,2016-10-08T10:18:00Z,28.4073,-96.7122,0.635,1111122 
TCOON,ioos:station:TCOON:031:1,2016-10-08T11:12:00Z,28.4073,-96.7122,0.646,1111122 
TCOON,ioos:station:TCOON:031:1,2016-10-08T12:18:00Z,28.4073,-96.7122,0.658,1111122 
TCOON,ioos:station:TCOON:031:1,2016-10-08T13:18:00Z,28.4073,-96.7122,0.674,1111122 
TCOON,ioos:station:TCOON:031:1,2016-10-08T14:18:00Z,28.4073,-96.7122,0.673,1111122 
TCOON,ioos:station:TCOON:031:1,2016-10-08T15:18:00Z,28.4073,-96.7122,0.689,1111122 
TCOON,ioos:station:TCOON:031:1,2016-10-08T16:18:00Z,28.4073,-96.7122,0.688,1111122 
TCOON,ioos:station:TCOON:031:1,2016-10-08T17:18:00Z,28.4073,-96.7122,0.721,1111122 
TCOON,ioos:station:TCOON:031:1,2016-10-08T18:18:00Z,28.4073,-96.7122,0.726,1111122 
TCOON,ioos:station:TCOON:031:1,2016-10-08T19:18:00Z,28.4073,-96.7122,0.726,1111122 
TCOON,ioos:station:TCOON:031:1,2016-10-08T20:18:00Z,28.4073,-96.7122,0.709,1111122 
TCOON,ioos:station:TCOON:031:1,2016-10-08T21:18:00Z,28.4073,-96.7122,0.7,1111122 
TCOON,ioos:station:TCOON:031:1,2016-10-08T22:18:00Z,28.4073,-96.7122,0.686,1111122 
TCOON,ioos:station:TCOON:031:1,2016-10-08T23:18:00Z,28.4073,-96.7122,0.671,1111122 
TCOON,ioos:station:TCOON:031:1,2016-10-09T00:18:00Z,28.4073,-96.7122,0.667,1111122 
TCOON,ioos:station:TCOON:031:1,2016-10-09T01:18:00Z,28.4073,-96.7122,0.649,1111122 
TCOON,ioos:station:TCOON:031:1,2016-10-09T02:18:00Z,28.4073,-96.7122,0.63,1111122 
TCOON,ioos:station:TCOON:031:1,2016-10-09T03:18:00Z,28.4073,-96.7122,0.616,1111122 
TCOON,ioos:station:TCOON:031:1,2016-10-09T04:18:00Z,28.4073,-96.7122,0.611,1111122 
TCOON,ioos:station:TCOON:031:1,2016-10-09T05:18:00Z,28.4073,-96.7122,0.618,1111122 
TCOON,ioos:station:TCOON:031:1,2016-10-09T06:24:00Z,28.4073,-96.7122,0.629,1111122 
TCOON,ioos:station:TCOON:031:1,2016-10-09T07:18:00Z,28.4073,-96.7122,0.635,1111122 
TCOON,ioos:station:TCOON:031:1,2016-10-09T08:18:00Z,28.4073,-96.7122,0.632,1111122 
TCOON,ioos:station:TCOON:031:1,2016-10-09T09:18:00Z,28.4073,-96.7122,0.638,1111122 
TCOON,ioos:station:TCOON:031:1,2016-10-09T10:18:00Z,28.4073,-96.7122,0.662,1111122 
TCOON,ioos:station:TCOON:031:1,2016-10-09T11:18:00Z,28.4073,-96.7122,0.668,1111122 
TCOON,ioos:station:TCOON:031:1,2016-10-09T12:18:00Z,28.4073,-96.7122,0.662,1111122 
TCOON,ioos:station:TCOON:031:1,2016-10-09T13:18:00Z,28.4073,-96.7122,0.662,1111122 
TCOON,ioos:station:TCOON:031:1,2016-10-09T14:18:00Z,28.4073,-96.7122,0.667,1111122 
TCOON,ioos:station:TCOON:031:1,2016-10-09T15:18:00Z,28.4073,-96.7122,0.69,1111122 
TCOON,ioos:station:TCOON:031:1,2016-10-09T16:18:00Z,28.4073,-96.7122,0.709,1111122 
TCOON,ioos:station:TCOON:031:1,2016-10-09T17:18:00Z,28.4073,-96.7122,0.732,1111122 
TCOON,ioos:station:TCOON:031:1,2016-10-09T18:18:00Z,28.4073,-96.7122,0.73,1111122 
TCOON,ioos:station:TCOON:031:1,2016-10-09T19:18:00Z,28.4073,-96.7122,0.719,1111122 
TCOON,ioos:station:TCOON:031:1,2016-10-09T20:18:00Z,28.4073,-96.7122,0.728,1111122 
TCOON,ioos:station:TCOON:031:1,2016-10-09T21:18:00Z,28.4073,-96.7122,0.72,1111122 
TCOON,ioos:station:TCOON:031:1,2016-10-09T22:18:00Z,28.4073,-96.7122,0.711,1111122 
TCOON,ioos:station:TCOON:031:1,2016-10-09T23:18:00Z,28.4073,-96.7122,0.701,1111122 
TCOON,ioos:station:TCOON:031:1,2016-10-10T00:18:00Z,28.4073,-96.7122,0.679,1111122 
TCOON,ioos:station:TCOON:031:1,2016-10-10T01:18:00Z,28.4073,-96.7122,0.671,1111122 
TCOON,ioos:station:TCOON:031:1,2016-10-10T02:18:00Z,28.4073,-96.7122,0.654,1111122 
TCOON,ioos:station:TCOON:031:1,2016-10-10T03:18:00Z,28.4073,-96.7122,0.652,1111122 
TCOON,ioos:station:TCOON:031:1,2016-10-10T04:18:00Z,28.4073,-96.7122,0.642,1111122 
TCOON,ioos:station:TCOON:031:1,2016-10-10T05:18:00Z,28.4073,-96.7122,0.637,1111122 
TCOON,ioos:station:TCOON:031:1,2016-10-10T06:18:00Z,28.4073,-96.7122,0.631,1111122 
TCOON,ioos:station:TCOON:031:1,2016-10-10T07:18:00Z,28.4073,-96.7122,0.636,1111122 
TCOON,ioos:station:TCOON:031:1,2016-10-10T08:18:00Z,28.4073,-96.7122,0.653,1111122 
TCOON,ioos:station:TCOON:031:1,2016-10-10T09:18:00Z,28.4073,-96.7122,0.652,1111122 
TCOON,ioos:station:TCOON:031:1,2016-10-10T10:18:00Z,28.4073,-96.7122,0.645,1111122 
TCOON,ioos:station:TCOON:031:1,2016-10-10T11:18:00Z,28.4073,-96.7122,0.648,1111122 
TCOON,ioos:station:TCOON:031:1,2016-10-10T12:18:00Z,28.4073,-96.7122,0.661,1111122 
TCOON,ioos:station:TCOON:031:1,2016-10-10T13:18:00Z,28.4073,-96.7122,0.671,1111122 
TCOON,ioos:station:TCOON:031:1,2016-10-10T14:18:00Z,28.4073,-96.7122,0.679,1111122 
TCOON,ioos:station:TCOON:031:1,2016-10-10T15:18:00Z,28.4073,-96.7122,0.688,1111122 
TCOON,ioos:station:TCOON:031:1,2016-10-10T16:18:00Z,28.4073,-96.7122,0.691,1111122 
TCOON,ioos:station:TCOON:031:1,2016-10-10T17:18:00Z,28.4073,-96.7122,0.706,1111122 
TCOON,ioos:station:TCOON:031:1,2016-10-10T18:18:00Z,28.4073,-96.7122,0.714,1111122 
TCOON,ioos:station:TCOON:031:1,2016-10-10T19:18:00Z,28.4073,-96.7122,0.724,1111122 
TCOON,ioos:station:TCOON:031:1,2016-10-10T20:18:00Z,28.4073,-96.7122,0.721,1111122 
TCOON,ioos:station:TCOON:031:1,2016-10-10T21:18:00Z,28.4073,-96.7122,0.72,1111122 
TCOON,ioos:station:TCOON:031:1,2016-10-10T22:18:00Z,28.4073,-96.7122,0.709,1111122 
TCOON,ioos:station:TCOON:031:1,2016-10-10T23:18:00Z,28.4073,-96.7122,0.7,1111122 
TCOON,ioos:station:TCOON:031:1,2016-10-11T00:18:00Z,28.4073,-96.7122,0.685,1111122 
TCOON,ioos:station:TCOON:031:1,2016-10-11T01:18:00Z,28.4073,-96.7122,0.681,1111122 
TCOON,ioos:station:TCOON:031:1,2016-10-11T02:18:00Z,28.4073,-96.7122,0.665,1111122 
TCOON,ioos:station:TCOON:031:1,2016-10-11T03:18:00Z,28.4073,-96.7122,0.654,1111122 
TCOON,ioos:station:TCOON:031:1,2016-10-11T04:18:00Z,28.4073,-96.7122,0.642,1111122 
TCOON,ioos:station:TCOON:031:1,2016-10-11T05:18:00Z,28.4073,-96.7122,0.639,1111122 
TCOON,ioos:station:TCOON:031:1,2016-10-11T06:18:00Z,28.4073,-96.7122,0.639,1111122 
TCOON,ioos:station:TCOON:031:1,2016-10-11T07:18:00Z,28.4073,-96.7122,0.642,1111122 
TCOON,ioos:station:TCOON:031:1,2016-10-11T08:18:00Z,28.4073,-96.7122,0.643,1111122 
TCOON,ioos:station:TCOON:031:1,2016-10-11T09:18:00Z,28.4073,-96.7122,0.651,1111122 
TCOON,ioos:station:TCOON:031:1,2016-10-11T10:18:00Z,28.4073,-96.7122,0.651,1111122 
TCOON,ioos:station:TCOON:031:1,2016-10-11T11:18:00Z,28.4073,-96.7122,0.663,1111122 
TCOON,ioos:station:TCOON:031:1,2016-10-11T12:18:00Z,28.4073,-96.7122,0.679,1111122 
TCOON,ioos:station:TCOON:031:1,2016-10-11T13:18:00Z,28.4073,-96.7122,0.669,1111122 
TCOON,ioos:station:TCOON:031:1,2016-10-11T14:18:00Z,28.4073,-96.7122,0.694,1111122 
TCOON,ioos:station:TCOON:031:1,2016-10-11T15:18:00Z,28.4073,-96.7122,0.702,1111122 
TCOON,ioos:station:TCOON:031:1,2016-10-11T16:18:00Z,28.4073,-96.7122,0.718,1111122 
TCOON,ioos:station:TCOON:031:1,2016-10-11T17:18:00Z,28.4073,-96.7122,0.719,1111122 
TCOON,ioos:station:TCOON:031:1,2016-10-11T18:18:00Z,28.4073,-96.7122,0.726,1111122 
TCOON,ioos:station:TCOON:031:1,2016-10-11T19:18:00Z,28.4073,-96.7122,0.738,1111122 
TCOON,ioos:station:TCOON:031:1,2016-10-11T20:18:00Z,28.4073,-96.7122,0.749,1111122 
TCOON,ioos:station:TCOON:031:1,2016-10-11T22:18:00Z,28.4073,-96.7122,0.76,1111122 
TCOON,ioos:station:TCOON:031:1,2016-10-11T23:18:00Z,28.4073,-96.7122,0.741,1111122 
TCOON,ioos:station:TCOON:031:1,2016-10-12T00:18:00Z,28.4073,-96.7122,0.728,1111122 
TCOON,ioos:station:TCOON:031:1,2016-10-12T01:18:00Z,28.4073,-96.7122,0.725,1111122 
TCOON,ioos:station:TCOON:031:1,2016-10-12T02:18:00Z,28.4073,-96.7122,0.717,1111122 
TCOON,ioos:station:TCOON:031:1,2016-10-12T03:18:00Z,28.4073,-96.7122,0.715,1111122 
TCOON,ioos:station:TCOON:031:1,2016-10-12T04:18:00Z,28.4073,-96.7122,0.701,1111122 
TCOON,ioos:station:TCOON:031:1,2016-10-12T05:18:00Z,28.4073,-96.7122,0.693,1111122 
TCOON,ioos:station:TCOON:031:1,2016-10-12T06:18:00Z,28.4073,-96.7122,0.698,1111122 
TCOON,ioos:station:TCOON:031:1,2016-10-12T07:18:00Z,28.4073,-96.7122,0.7,1111122 
TCOON,ioos:station:TCOON:031:1,2016-10-12T08:18:00Z,28.4073,-96.7122,0.712,1111122 
TCOON,ioos:station:TCOON:031:1,2016-10-12T09:18:00Z,28.4073,-96.7122,0.714,1111122 
TCOON,ioos:station:TCOON:031:1,2016-10-12T10:18:00Z,28.4073,-96.7122,0.724,1111122 
TCOON,ioos:station:TCOON:031:1,2016-10-12T11:18:00Z,28.4073,-96.7122,0.735,1111122 
TCOON,ioos:station:TCOON:031:1,2016-10-12T12:18:00Z,28.4073,-96.7122,0.742,1111122 
TCOON,ioos:station:TCOON:031:1,2016-10-12T13:18:00Z,28.4073,-96.7122,0.749,1111122 
TCOON,ioos:station:TCOON:031:1,2016-10-12T14:18:00Z,28.4073,-96.7122,0.766,1111122 
TCOON,ioos:station:TCOON:031:1,2016-10-12T15:18:00Z,28.4073,-96.7122,0.773,1111122 
TCOON,ioos:station:TCOON:031:1,2016-10-12T16:18:00Z,28.4073,-96.7122,0.769,1111122 
TCOON,ioos:station:TCOON:031:1,2016-10-12T17:18:00Z,28.4073,-96.7122,0.793,1111122 
TCOON,ioos:station:TCOON:031:1,2016-10-12T18:18:00Z,28.4073,-96.7122,0.792,1111122 
TCOON,ioos:station:TCOON:031:1,2016-10-12T19:18:00Z,28.4073,-96.7122,0.816,1111122 
TCOON,ioos:station:TCOON:031:1,2016-10-12T20:18:00Z,28.4073,-96.7122,0.812,1111122 
TCOON,ioos:station:TCOON:031:1,2016-10-12T21:24:00Z,28.4073,-96.7122,0.809,1111122 
TCOON,ioos:station:TCOON:031:1,2016-10-12T22:18:00Z,28.4073,-96.7122,0.801,1111122 
TCOON,ioos:station:TCOON:031:1,2016-10-12T23:24:00Z,28.4073,-96.7122,0.789,1111122 
TCOON,ioos:station:TCOON:031:1,2016-10-13T00:18:00Z,28.4073,-96.7122,0.788,1111122 